Weather in Weimar

Germany     50˚58′20″N   11˚19′39″E
temp.,
°C
wind,
m/s
gust,
m/s
humid.,
%
clouds,
%
prec.,
mm/h
press.,
hPa
HPBL,
m
3 december, thu
thu301:00−1˚sw137744 0.0 1013220
04:00−3˚ssw357699 0.0 1011179
07:00−3˚s487967 0.0 1009228
10:00−1˚s587071 0.0 1008298
13:00+2˚sw476380 0.0 1005617
16:00−1˚s367979 0.0 1003145
19:00−1˚sse5118239 0.0 1002346
22:00−1˚sse612790 0.0 999313
4 december, fri
fri401:00sse5106944 0.0 997330
04:00+1˚se4961100 0.0 995211
07:00s3762100 0.0 994176
10:00+2˚se3562100 0.0 993151
13:00+4˚se1266100 0.0 992204
16:00+1˚ese238767 0.0 99125
19:00sse228580 0.0 99222
22:00s1184100 0.0 99322
5 december, sat
sat501:00−1˚ssw118467 0.0 99421
04:00−1˚se1182100 0.0 99421
07:00−1˚ssw2382100 0.0 99533
10:00+1˚wnw127433 0.0 99788
13:00+4˚wnw116521 0.0 998297
16:00+1˚nnw1178100 0.0 99722
19:00w2399100 1.3 998143
22:00+1˚wsw1298100 0.3 100094
6 december, sun
sun601:00+1˚sse1295100 0.3 100269
04:00+1˚se1295100 0.0 100130
07:00+1˚nnw1196100 0.0 100222
10:00+1˚e2394100 0.0 1003196
13:00+2˚nne2592100 0.0 1001297
16:00+1˚nne3796100 1.4 999303
19:00+2˚ne2699100 2.4 997227
22:00+3˚e2297100 0.1 99623
7 december, mon
mon701:00+4˚ese2391100 0.1 99561
04:00+4˚se3491100 0.0 99680
07:00+3˚s2688100 0.0 997180
10:00+3˚s4890100 0.3 998523
13:00+4˚s61179100 0.3 1000936
16:00+2˚s5138033 0.0 1003874
19:00+3˚ssw8167656 0.0 10061078
22:00+1˚ssw513841 0.0 1008537